Overview Statistics Trail Chart Weather Telemetry Raw packets
 

This is the latest recevied weather packets stored in our database for station/object KB2EAR-13. If no packets are shown the sender has not sent any weather packets the latest 10 day(s).

<< 1 2 3 4 >>
Time Temp. Humidity Pressure Rain* Wind** Luminosity Snow
1788633917 26.67° C 56% 1011.3 hPa 0 mm - - -
1788633617 26.67° C 57% 1011.4 hPa 0 mm - - -
1788633317 26.11° C 59% 1011.5 hPa 0 mm - - -
1788633017 26.11° C 59% 1011.6 hPa 0 mm - - -
1788632717 25.56° C 58% 1011.5 hPa 0 mm - - -
1788632417 25.56° C 59% 1011.7 hPa 0 mm - - -
1788632117 25.56° C 59% 1011.7 hPa 0 mm - - -
1788631817 25.56° C 61% 1011.7 hPa 0 mm - - -
1788631517 25.56° C 62% 1011.6 hPa 0 mm - - -
1788631217 25.56° C 60% 1011.7 hPa 0 mm - - -
1788630917 25.56° C 61% 1011.7 hPa 0 mm - - -
1788630617 25.56° C 60% 1011.7 hPa 0 mm - - -
1788630317 25.56° C 60% 1011.6 hPa 0 mm - - -
1788630017 25° C 63% 1011.7 hPa 0 mm - - -
1788629717 25.56° C 61% 1011.7 hPa 0 mm - - -
1788629417 25.56° C 61% 1011.6 hPa 0 mm - - -
1788629117 25.56° C 61% 1011.6 hPa 0 mm - - -
1788628817 25° C 61% 1011.7 hPa 0 mm - - -
1788628517 25° C 63% 1011.7 hPa 0 mm - - -
1788628217 25° C 62% 1011.8 hPa 0 mm - - -
1788627917 25° C 61% 1011.7 hPa 0 mm - - -
1788627617 25.56° C 60% 1011.8 hPa 0 mm - - -
1788627317 25.56° C 59% 1011.8 hPa 0 mm - - -
1788627017 25.56° C 60% 1011.8 hPa 0 mm - - -
1788626717 25.56° C 60% 1011.8 hPa 0 mm - - -

* Rain latest hour (hover to see other rain measurements)
** Current wind speed in m/s (hover to see current wind gust speed)